Location: Zagreb
(45.8000°N, 16.0000°E)
Time: 13:51:02
(UTC+02:00)

Transit 2A Rocket - Pass Details

Date: 10 August 2022
Orbit: 593 x 907 km, 66.7° (Epoch: 25 September)

Event Time Altitude Azimuth Distance (km) Brightness Sun altitude
Rises 02:23:12 0° 338° (NNW) 2,842 8.6 -25.9°
Reaches altitude 10° 02:26:59 10° 12° (NNE) 1,953 8.1 -25.6°
Maximum altitude 02:28:32 12° 33° (NNE) 1,858 8.0 -25.5°
Drops below altitude 10° 02:30:05 10° 54° (NE) 1,979 7.9 -25.4°
Sets 02:33:59 0° 87° (E) 2,936 8.4 -25.1°
